GFSFLT1_prec_precacc_114.txt.gz
Total_Precipitation_Accumulation
0.02 0.08 0.06 0.03 0.07 0.47 0.76 0.84 1.33 1.81 1.50 0.68 0.39 0.40 0.31 0.37 0.39 0.42 0.61 1.11 0.78 0.65 0.69 0.57 0.50 0.40 0.30 0.19 0.12 0.16 0.18 0.19
0.05 0.08 0.11 0.12 0.20 0.56 0.70 0.86 0.73 0.52 0.32 0.30 0.26 0.29 0.20 0.21 0.22 0.40 0.51 0.82 0.92 0.69 0.71 0.65 0.54 0.33 0.20 0.14 0.14 0.16 0.25 0.23
0.01 0.02 0.08 0.22 0.43 0.48 0.41 0.32 0.20 0.19 0.15 0.14 0.13 0.15 0.13 0.09 0.14 0.26 0.76 0.77 0.75 0.70 0.73 0.57 0.45 0.41 0.40 0.27 0.14 0.12 0.21 0.29
0.05 0.09 0.12 0.12 0.10 0.06 0.09 0.14 0.09 0.16 0.10 0.09 0.09 0.16 0.27 0.21 0.19 0.25 0.51 0.49 0.57 0.54 0.69 0.68 0.50 0.49 0.52 0.43 0.24 0.14 0.19 0.28
0.02 0.01 0.01 0.00 0.05 0.08 0.12 0.12 0.15 0.07 0.11 0.08 0.07 0.05 0.10 0.11 0.13 0.15 0.30 0.34 0.41 0.46 0.44 0.57 0.44 0.47 0.50 0.54 0.46 0.37 0.42 0.46
0.02 0.01 0.03 0.05 0.04 0.08 0.09 0.12 0.22 0.16 0.12 0.12 0.17 0.09 0.09 0.09 0.15 0.21 0.28 0.35 0.30 0.44 0.50 0.59 0.49 0.46 0.50 0.52 0.58 0.57 0.62 0.53
0.06 0.04 0.06 0.06 0.07 0.20 0.11 0.11 0.10 0.13 0.13 0.10 0.11 0.17 0.11 0.09 0.11 0.10 0.14 0.23 0.23 0.34 0.59 0.59 0.60 0.57 0.68 0.63 0.67 0.75 0.79 0.81
0.02 0.02 0.05 0.05 0.09 0.20 0.10 0.05 0.07 0.06 0.07 0.12 0.17 0.32 0.20 0.19 0.11 0.08 0.14 0.12 0.11 0.16 0.34 0.50 0.52 0.70 0.77 0.96 0.96 0.89 1.05 1.05
0.02 0.02 0.05 0.07 0.17 0.18 0.09 0.04 0.06 0.08 0.15 0.29 0.27 0.27 0.33 0.44 0.31 0.17 0.27 0.16 0.12 0.15 0.25 0.49 0.62 0.77 0.75 0.89 1.13 1.22 1.28 1.43
0.02 0.02 0.01 0.03 0.24 0.17 0.05 0.03 0.02 0.04 0.16 0.28 0.18 0.44 0.69 0.54 0.46 0.46 0.46 0.47 0.42 0.36 0.42 0.53 0.67 0.68 0.85 0.94 1.08 0.98 0.88 0.82
0.02 0.02 0.01 0.01 0.06 0.05 0.03 0.08 0.22 0.19 0.07 0.13 0.20 0.32 0.44 0.51 0.39 0.40 0.65 0.72 0.55 0.57 0.56 0.56 0.49 0.45 0.55 0.58 0.56 0.61 0.82 0.81
0.09 0.05 0.05 0.01 0.01 0.02 0.07 0.06 0.18 0.39 0.63 0.57 0.37 0.50 0.50 0.72 0.70 0.81 0.65 0.62 0.70 0.73 0.52 0.40 0.35 0.46 0.55 0.51 0.50 0.54 0.58 0.81
0.23 0.16 0.10 0.09 0.06 0.08 0.13 0.15 0.23 0.50 1.37 1.48 0.97 1.09 0.94 0.89 0.94 0.86 0.89 0.89 0.85 0.69 0.47 0.35 0.36 0.44 0.62 0.77 0.71 0.64 0.64 0.63
0.25 0.21 0.12 0.14 0.16 0.16 0.23 0.36 0.51 1.10 1.34 1.28 1.05 1.19 1.30 1.08 0.94 0.71 0.48 0.47 0.49 0.45 0.47 0.38 0.39 0.39 0.42 0.39 0.38 0.43 0.47 0.56
0.26 0.22 0.18 0.21 0.30 0.50 0.67 0.80 0.88 1.25 1.07 1.01 0.79 0.77 0.93 0.55 0.47 0.40 0.35 0.29 0.28 0.28 0.26 0.26 0.24 0.23 0.25 0.28 0.32 0.34 0.29 0.26
0.49 0.34 0.32 0.31 0.36 0.47 0.57 0.70 0.90 1.07 1.09 1.09 0.83 0.56 0.71 0.59 0.64 0.54 0.32 0.28 0.26 0.28 0.28 0.31 0.34 0.32 0.33 0.29 0.22 0.21 0.21 0.21
0.87 0.61 0.40 0.43 0.41 0.42 0.49 0.57 0.69 0.70 0.72 0.87 0.77 0.60 0.58 0.62 0.64 0.66 0.54 0.47 0.52 0.52 0.56 0.55 0.46 0.41 0.64 0.45 0.21 0.11 0.12 0.17
0.94 0.87 0.63 0.54 0.64 0.64 0.64 0.65 0.70 0.65 0.66 0.77 0.72 0.63 0.71 0.66 0.81 0.87 0.87 0.84 1.07 1.12 1.04 0.91 0.66 0.50 0.69 0.56 0.42 0.13 0.17 0.20
1.12 1.19 0.89 0.69 0.71 0.63 0.62 0.64 0.67 0.88 0.86 0.89 0.94 0.83 0.74 0.74 0.82 0.83 1.21 1.60 1.35 1.09 0.95 0.83 0.80 0.78 0.72 0.61 0.57 0.23 0.24 0.28

GFSFLT1_prec_precacc_117.txt.gz
Total_Precipitation_Accumulation
0.02 0.08 0.06 0.03 0.07 0.47 0.76 0.84 1.33 1.81 1.50 0.68 0.39 0.40 0.31 0.37 0.39 0.42 0.61 1.11 0.78 0.65 0.69 0.57 0.50 0.41 0.31 0.19 0.12 0.16 0.18 0.19
0.05 0.08 0.11 0.12 0.20 0.56 0.70 0.86 0.73 0.52 0.32 0.30 0.26 0.30 0.20 0.21 0.22 0.40 0.51 0.82 0.92 0.69 0.71 0.65 0.54 0.34 0.21 0.14 0.14 0.16 0.25 0.23
0.01 0.02 0.08 0.22 0.43 0.48 0.41 0.33 0.20 0.19 0.15 0.21 0.19 0.18 0.13 0.09 0.14 0.26 0.76 0.77 0.75 0.70 0.73 0.57 0.45 0.42 0.40 0.28 0.14 0.12 0.21 0.29
0.05 0.09 0.12 0.12 0.10 0.06 0.09 0.15 0.10 0.20 0.23 0.20 0.14 0.18 0.27 0.21 0.19 0.25 0.51 0.49 0.57 0.54 0.69 0.68 0.50 0.49 0.52 0.43 0.24 0.14 0.19 0.28
0.02 0.01 0.01 0.00 0.05 0.08 0.12 0.12 0.17 0.19 0.30 0.10 0.12 0.07 0.10 0.11 0.13 0.15 0.30 0.34 0.41 0.46 0.44 0.57 0.44 0.47 0.50 0.54 0.47 0.37 0.43 0.47
0.03 0.01 0.03 0.05 0.04 0.08 0.09 0.12 0.22 0.17 0.14 0.13 0.18 0.10 0.11 0.09 0.15 0.21 0.29 0.36 0.30 0.44 0.50 0.59 0.49 0.46 0.50 0.52 0.59 0.57 0.62 0.53
0.08 0.04 0.06 0.06 0.07 0.20 0.11 0.11 0.10 0.13 0.14 0.12 0.12 0.18 0.12 0.09 0.11 0.10 0.14 0.24 0.23 0.34 0.59 0.59 0.60 0.57 0.68 0.63 0.67 0.75 0.80 0.82
0.06 0.03 0.05 0.05 0.09 0.20 0.10 0.05 0.07 0.06 0.07 0.12 0.18 0.33 0.21 0.19 0.11 0.08 0.14 0.12 0.11 0.16 0.34 0.50 0.52 0.70 0.77 0.96 0.96 0.89 1.06 1.06
0.06 0.04 0.05 0.07 0.17 0.18 0.09 0.04 0.06 0.08 0.15 0.29 0.28 0.29 0.34 0.45 0.31 0.19 0.31 0.18 0.12 0.16 0.25 0.50 0.63 0.78 0.76 0.89 1.13 1.22 1.29 1.44
0.03 0.03 0.02 0.03 0.24 0.17 0.05 0.03 0.02 0.04 0.16 0.29 0.19 0.46 0.70 0.57 0.51 0.54 0.49 0.51 0.48 0.42 0.48 0.55 0.69 0.68 0.86 0.94 1.09 0.98 0.89 0.83
0.05 0.03 0.02 0.02 0.07 0.05 0.03 0.08 0.22 0.19 0.07 0.13 0.20 0.33 0.47 0.55 0.48 0.48 0.76 0.79 0.65 0.71 0.68 0.62 0.52 0.48 0.57 0.59 0.57 0.61 0.83 0.83
0.22 0.09 0.06 0.02 0.02 0.03 0.07 0.06 0.19 0.40 0.63 0.57 0.37 0.50 0.50 0.72 0.71 0.84 0.71 0.70 0.81 0.82 0.65 0.51 0.43 0.52 0.58 0.53 0.51 0.54 0.59 0.82
0.40 0.25 0.12 0.11 0.08 0.09 0.14 0.16 0.23 0.50 1.37 1.48 0.97 1.09 0.94 0.89 0.94 0.86 0.90 0.90 0.88 0.75 0.55 0.45 0.44 0.49 0.66 0.81 0.73 0.65 0.65 0.63
0.60 0.44 0.24 0.19 0.22 0.19 0.23 0.37 0.51 1.10 1.34 1.29 1.06 1.19 1.30 1.08 0.94 0.71 0.48 0.48 0.51 0.47 0.49 0.40 0.41 0.43 0.47 0.42 0.40 0.44 0.47 0.56
0.47 0.36 0.35 0.26 0.33 0.53 0.68 0.80 0.88 1.25 1.07 1.01 0.79 0.77 0.93 0.55 0.47 0.40 0.35 0.31 0.31 0.32 0.30 0.29 0.27 0.27 0.30 0.33 0.36 0.37 0.31 0.27
0.51 0.36 0.34 0.33 0.36 0.47 0.57 0.70 0.90 1.07 1.09 1.09 0.83 0.56 0.72 0.59 0.64 0.55 0.32 0.29 0.29 0.32 0.31 0.35 0.38 0.40 0.43 0.41 0.33 0.31 0.25 0.22
0.87 0.61 0.41 0.43 0.41 0.42 0.49 0.57 0.69 0.70 0.72 0.87 0.77 0.60 0.58 0.62 0.64 0.66 0.54 0.47 0.52 0.53 0.57 0.56 0.48 0.44 0.77 0.59 0.41 0.31 0.27 0.25
0.95 0.88 0.65 0.55 0.64 0.64 0.65 0.65 0.70 0.65 0.66 0.77 0.72 0.63 0.71 0.66 0.81 0.87 0.87 0.84 1.07 1.12 1.05 0.94 0.67 0.53 0.83 0.69 0.62 0.32 0.35 0.34
1.13 1.20 0.90 0.70 0.71 0.63 0.62 0.64 0.67 0.88 0.86 0.89 0.94 0.83 0.74 0.74 0.82 0.83 1.22 1.60 1.35 1.09 0.97 0.88 0.88 0.92 0.96 0.87 0.97 0.64 0.58 0.49

GFSFLT1_prec_precacc_120.txt.gz
Total_Precipitation_Accumulation
0.02 0.08 0.06 0.03 0.07 0.47 0.76 0.84 1.33 1.81 1.50 0.68 0.39 0.40 0.31 0.37 0.39 0.42 0.61 1.11 0.78 0.65 0.69 0.57 0.50 0.41 0.31 0.19 0.12 0.16 0.19 0.20
0.05 0.08 0.11 0.12 0.20 0.56 0.70 0.86 0.73 0.52 0.32 0.30 0.26 0.30 0.20 0.21 0.22 0.40 0.51 0.82 0.92 0.69 0.71 0.65 0.54 0.34 0.21 0.14 0.14 0.16 0.25 0.24
0.01 0.02 0.08 0.22 0.43 0.48 0.41 0.33 0.20 0.19 0.15 0.21 0.19 0.18 0.13 0.09 0.14 0.26 0.76 0.77 0.75 0.70 0.73 0.57 0.45 0.42 0.40 0.28 0.15 0.12 0.21 0.29
0.05 0.09 0.12 0.12 0.10 0.06 0.09 0.15 0.10 0.21 0.23 0.20 0.15 0.18 0.28 0.21 0.19 0.25 0.51 0.49 0.57 0.54 0.69 0.68 0.50 0.49 0.52 0.43 0.24 0.14 0.19 0.28
0.02 0.01 0.01 0.00 0.05 0.08 0.12 0.13 0.18 0.21 0.31 0.10 0.12 0.07 0.10 0.11 0.13 0.15 0.30 0.34 0.41 0.46 0.44 0.57 0.44 0.47 0.50 0.54 0.47 0.37 0.43 0.47
0.04 0.02 0.03 0.05 0.04 0.08 0.09 0.13 0.25 0.23 0.17 0.15 0.21 0.11 0.11 0.09 0.15 0.21 0.29 0.36 0.30 0.44 0.50 0.59 0.49 0.46 0.50 0.52 0.59 0.57 0.62 0.53
0.14 0.10 0.10 0.08 0.08 0.20 0.12 0.12 0.12 0.26 0.26 0.24 0.28 0.33 0.13 0.09 0.11 0.10 0.14 0.24 0.23 0.34 0.59 0.59 0.60 0.57 0.68 0.63 0.67 0.76 0.80 0.82
0.13 0.13 0.16 0.15 0.14 0.23 0.11 0.06 0.08 0.14 0.22 0.33 0.31 0.52 0.33 0.20 0.12 0.08 0.15 0.14 0.11 0.17 0.35 0.50 0.52 0.70 0.77 0.96 0.97 0.89 1.06 1.07
0.17 0.22 0.14 0.18 0.25 0.22 0.12 0.05 0.07 0.09 0.20 0.41 0.34 0.37 0.36 0.46 0.32 0.20 0.32 0.18 0.12 0.18 0.32 0.58 0.69 0.80 0.76 0.89 1.14 1.23 1.30 1.45
0.15 0.14 0.10 0.10 0.31 0.22 0.15 0.08 0.03 0.05 0.16 0.30 0.20 0.47 0.71 0.59 0.53 0.55 0.51 0.53 0.50 0.47 0.58 0.66 0.77 0.77 0.91 0.97 1.09 0.99 0.89 0.83
0.12 0.09 0.07 0.06 0.12 0.09 0.07 0.13 0.25 0.20 0.07 0.13 0.20 0.33 0.47 0.56 0.50 0.51 0.80 0.84 0.70 0.78 0.80 0.73 0.56 0.66 0.81 0.76 0.66 0.68 0.86 0.83
0.33 0.15 0.07 0.02 0.03 0.04 0.10 0.08 0.20 0.40 0.64 0.57 0.37 0.51 0.51 0.74 0.73 0.87 0.77 0.76 0.88 0.92 0.76 0.62 0.47 0.59 0.78 0.70 0.60 0.57 0.61 0.83
0.61 0.38 0.18 0.12 0.08 0.09 0.14 0.18 0.26 0.51 1.37 1.48 0.97 1.09 0.94 0.89 0.94 0.87 0.91 0.93 0.97 0.84 0.59 0.49 0.48 0.52 0.70 0.87 0.78 0.68 0.67 0.65
0.80 0.63 0.40 0.27 0.25 0.19 0.23 0.37 0.52 1.11 1.35 1.29 1.06 1.19 1.30 1.08 0.94 0.71 0.48 0.48 0.52 0.51 0.54 0.45 0.46 0.47 0.52 0.48 0.45 0.47 0.49 0.57
0.70 0.57 0.52 0.37 0.41 0.58 0.70 0.81 0.88 1.25 1.07 1.01 0.79 0.78 0.93 0.55 0.47 0.41 0.35 0.31 0.31 0.32 0.31 0.30 0.30 0.30 0.32 0.36 0.39 0.39 0.32 0.28
0.63 0.50 0.55 0.50 0.44 0.49 0.58 0.71 0.90 1.07 1.09 1.09 0.83 0.56 0.72 0.59 0.64 0.55 0.32 0.29 0.29 0.32 0.33 0.38 0.41 0.42 0.47 0.43 0.35 0.32 0.28 0.29
0.88 0.62 0.44 0.49 0.45 0.44 0.50 0.57 0.69 0.70 0.72 0.87 0.77 0.60 0.58 0.62 0.64 0.66 0.54 0.47 0.53 0.53 0.58 0.58 0.51 0.47 0.84 0.62 0.43 0.32 0.35 0.49
0.96 0.89 0.66 0.56 0.65 0.64 0.65 0.65 0.70 0.65 0.66 0.77 0.72 0.63 0.71 0.66 0.81 0.87 0.87 0.84 1.07 1.12 1.05 0.94 0.67 0.54 0.86 0.69 0.62 0.33 0.37 0.46
1.13 1.20 0.91 0.71 0.71 0.63 0.62 0.64 0.67 0.88 0.86 0.89 0.94 0.83 0.74 0.74 0.82 0.83 1.22 1.61 1.36 1.09 0.97 0.88 0.88 0.93 0.97 0.88 0.97 0.65 0.62 0.58

GFSFLT1_prec_precacc_123.txt.gz
Total_Precipitation_Accumulation
0.02 0.08 0.06 0.03 0.07 0.47 0.76 0.84 1.33 1.82 1.54 0.69 0.39 0.40 0.31 0.37 0.39 0.42 0.61 1.12 0.78 0.65 0.69 0.57 0.50 0.41 0.31 0.20 0.13 0.16 0.19 0.20
0.05 0.08 0.11 0.12 0.20 0.56 0.70 0.86 0.73 0.54 0.41 0.34 0.27 0.30 0.20 0.21 0.22 0.40 0.51 0.82 0.92 0.69 0.71 0.65 0.54 0.34 0.21 0.15 0.14 0.16 0.26 0.25
0.01 0.02 0.08 0.22 0.43 0.48 0.41 0.33 0.20 0.20 0.17 0.26 0.23 0.18 0.13 0.09 0.14 0.26 0.76 0.77 0.75 0.70 0.73 0.57 0.45 0.42 0.40 0.28 0.15 0.12 0.22 0.30
0.06 0.09 0.12 0.12 0.10 0.06 0.09 0.15 0.10 0.21 0.23 0.22 0.21 0.20 0.28 0.21 0.19 0.25 0.51 0.49 0.57 0.54 0.69 0.68 0.50 0.49 0.52 0.44 0.25 0.14 0.20 0.28
0.03 0.01 0.01 0.00 0.05 0.08 0.12 0.13 0.19 0.21 0.33 0.13 0.18 0.09 0.10 0.11 0.13 0.15 0.30 0.34 0.41 0.46 0.44 0.57 0.44 0.47 0.50 0.54 0.47 0.37 0.43 0.47
0.06 0.03 0.04 0.05 0.05 0.08 0.09 0.13 0.25 0.27 0.26 0.19 0.28 0.18 0.11 0.09 0.15 0.21 0.29 0.36 0.30 0.44 0.50 0.59 0.49 0.46 0.50 0.52 0.59 0.57 0.63 0.53
0.16 0.13 0.14 0.12 0.11 0.22 0.12 0.13 0.13 0.29 0.34 0.37 0.39 0.50 0.30 0.17 0.12 0.10 0.14 0.24 0.23 0.34 0.59 0.60 0.60 0.57 0.68 0.63 0.67 0.76 0.80 0.82
0.16 0.20 0.30 0.25 0.25 0.33 0.16 0.08 0.15 0.22 0.39 0.51 0.49 0.88 0.93 0.73 0.43 0.19 0.17 0.17 0.12 0.17 0.35 0.50 0.52 0.71 0.77 0.96 0.97 0.90 1.07 1.07
0.27 0.56 0.36 0.30 0.41 0.43 0.25 0.10 0.18 0.24 0.41 0.65 0.66 0.64 0.75 0.92 1.01 0.89 0.42 0.20 0.14 0.19 0.34 0.59 0.70 0.82 0.77 0.91 1.14 1.23 1.31 1.46
0.41 0.41 0.22 0.22 0.62 0.49 0.36 0.21 0.14 0.22 0.33 0.52 0.53 0.74 0.98 1.01 0.75 0.88 0.66 0.56 0.51 0.49 0.61 0.70 0.81 0.85 1.01 1.06 1.12 1.02 0.92 0.87
0.35 0.51 0.20 0.17 0.39 0.18 0.20 0.28 0.35 0.31 0.23 0.29 0.41 0.54 0.68 0.92 0.83 0.65 0.85 0.86 0.72 0.81 0.83 0.78 0.62 0.74 0.94 0.84 0.77 0.80 0.96 0.90
0.46 0.39 0.24 0.13 0.14 0.15 0.23 0.21 0.30 0.45 0.69 0.63 0.46 0.66 0.71 1.10 1.08 1.01 0.82 0.80 0.92 0.96 0.81 0.67 0.50 0.63 0.87 0.81 0.73 0.70 0.72 0.96
0.76 0.50 0.32 0.23 0.16 0.15 0.34 0.45 0.48 0.66 1.40 1.48 0.98 1.11 1.10 1.00 1.05 0.92 0.94 0.97 1.00 0.87 0.63 0.51 0.50 0.54 0.75 0.92 0.86 0.77 0.71 0.67
1.00 0.74 0.47 0.34 0.30 0.24 0.33 0.52 0.79 1.41 1.47 1.30 1.06 1.19 1.32 1.09 0.94 0.71 0.48 0.48 0.52 0.52 0.58 0.48 0.49 0.49 0.54 0.50 0.47 0.51 0.54 0.61
0.86 0.78 0.66 0.50 0.49 0.62 0.72 0.82 0.92 1.31 1.12 1.03 0.80 0.78 0.93 0.55 0.47 0.41 0.35 0.31 0.31 0.32 0.31 0.31 0.31 0.31 0.33 0.37 0.40 0.42 0.37 0.33
0.72 0.64 0.70 0.64 0.53 0.57 0.62 0.71 0.90 1.07 1.09 1.09 0.83 0.56 0.72 0.59 0.64 0.55 0.32 0.29 0.29 0.32 0.33 0.38 0.41 0.42 0.47 0.43 0.35 0.34 0.31 0.32
0.88 0.64 0.50 0.59 0.49 0.46 0.50 0.58 0.69 0.70 0.72 0.87 0.77 0.60 0.58 0.62 0.64 0.66 0.54 0.47 0.53 0.53 0.58 0.58 0.51 0.47 0.86 0.63 0.45 0.35 0.39 0.53
0.96 0.90 0.67 0.57 0.66 0.64 0.65 0.65 0.70 0.65 0.66 0.77 0.72 0.63 0.71 0.66 0.81 0.87 0.87 0.84 1.07 1.12 1.05 0.94 0.67 0.54 0.87 0.70 0.63 0.34 0.39 0.50
1.14 1.20 0.91 0.71 0.72 0.63 0.62 0.64 0.67 0.88 0.86 0.89 0.94 0.83 0.74 0.74 0.82 0.83 1.22 1.61 1.36 1.10 0.97 0.88 0.88 0.93 0.97 0.88 0.98 0.65 0.62 0.59

GFSFLT1_prec_precacc_126.txt.gz
Total_Precipitation_Accumulation
0.02 0.08 0.06 0.03 0.07 0.47 0.76 0.84 1.33 1.82 1.57 0.78 0.47 0.50 0.43 0.40 0.39 0.42 0.61 1.12 0.78 0.65 0.70 0.57 0.51 0.42 0.31 0.20 0.14 0.17 0.20 0.21
0.05 0.08 0.11 0.12 0.20 0.56 0.70 0.86 0.73 0.54 0.42 0.41 0.38 0.40 0.31 0.26 0.22 0.40 0.51 0.82 0.92 0.69 0.71 0.66 0.55 0.35 0.21 0.15 0.15 0.17 0.26 0.25
0.01 0.02 0.08 0.22 0.43 0.48 0.41 0.33 0.20 0.20 0.17 0.28 0.34 0.36 0.27 0.16 0.14 0.26 0.76 0.77 0.76 0.70 0.73 0.57 0.45 0.42 0.41 0.28 0.15 0.13 0.23 0.30
0.06 0.09 0.12 0.12 0.10 0.06 0.09 0.15 0.10 0.21 0.23 0.23 0.28 0.41 0.47 0.36 0.22 0.25 0.51 0.49 0.58 0.54 0.69 0.68 0.50 0.49 0.52 0.44 0.25 0.14 0.20 0.29
0.03 0.01 0.01 0.01 0.05 0.08 0.12 0.13 0.19 0.21 0.33 0.13 0.26 0.19 0.21 0.19 0.16 0.15 0.32 0.34 0.41 0.47 0.44 0.57 0.44 0.47 0.50 0.54 0.47 0.38 0.43 0.48
0.06 0.03 0.05 0.06 0.05 0.08 0.09 0.13 0.25 0.27 0.26 0.20 0.34 0.29 0.20 0.18 0.20 0.22 0.30 0.37 0.30 0.44 0.50 0.60 0.49 0.46 0.50 0.53 0.59 0.58 0.63 0.54
0.16 0.14 0.14 0.12 0.11 0.23 0.12 0.13 0.13 0.29 0.34 0.38 0.46 0.60 0.43 0.26 0.18 0.12 0.14 0.24 0.23 0.34 0.59 0.60 0.61 0.57 0.68 0.63 0.68 0.76 0.80 0.83
0.16 0.21 0.31 0.29 0.27 0.34 0.18 0.10 0.16 0.23 0.41 0.54 0.57 1.05 1.20 1.09 0.66 0.28 0.21 0.19 0.13 0.17 0.36 0.51 0.53 0.71 0.77 0.96 0.97 0.90 1.07 1.08
0.28 0.60 0.42 0.35 0.47 0.54 0.35 0.18 0.25 0.30 0.46 0.70 0.71 0.76 1.02 1.70 1.72 1.50 1.09 0.44 0.25 0.21 0.36 0.60 0.71 0.83 0.81 0.94 1.17 1.26 1.32 1.48
0.46 0.54 0.30 0.29 0.94 1.13 0.60 0.41 0.30 0.33 0.42 0.57 0.57 0.86 1.24 1.47 1.58 1.82 1.72 1.69 1.00 0.63 0.71 0.74 0.84 0.92 1.11 1.15 1.17 1.07 0.96 0.89
0.45 0.72 0.28 0.29 1.10 0.85 0.52 0.57 0.60 0.52 0.36 0.37 0.45 0.61 0.87 1.21 1.41 2.11 1.56 1.30 1.65 1.28 1.04 0.95 0.75 0.81 1.01 0.90 0.82 0.84 1.02 0.95
0.52 0.65 0.40 0.27 0.56 0.84 0.66 0.52 0.64 0.73 0.84 0.83 0.60 0.78 0.89 1.25 1.24 1.57 1.91 1.20 1.04 1.08 0.92 0.82 0.63 0.70 0.94 0.89 0.80 0.76 0.80 1.01
0.82 0.63 0.58 0.44 0.32 0.38 0.65 0.68 0.65 0.92 1.52 1.71 1.22 1.32 1.31 1.26 1.29 1.20 1.21 1.30 1.28 1.00 0.72 0.60 0.57 0.57 0.79 0.97 0.93 0.84 0.81 0.76
1.06 0.80 0.55 0.63 0.45 0.59 0.76 0.69 0.87 1.52 1.56 1.52 1.31 1.52 1.44 1.35 1.24 0.92 0.62 0.64 0.69 0.63 0.68 0.56 0.54 0.54 0.59 0.56 0.51 0.55 0.60 0.68
0.95 0.88 0.76 0.62 0.59 0.89 0.87 0.89 0.97 1.41 1.35 1.31 1.16 1.03 1.12 0.74 0.72 0.65 0.52 0.41 0.39 0.38 0.34 0.36 0.37 0.37 0.39 0.41 0.45 0.45 0.40 0.37
0.76 0.70 0.78 0.73 0.61 0.65 0.69 0.73 0.91 1.10 1.16 1.19 1.01 0.78 0.88 0.76 0.80 0.68 0.46 0.39 0.34 0.35 0.36 0.40 0.43 0.45 0.50 0.46 0.37 0.35 0.33 0.34
0.89 0.66 0.52 0.61 0.50 0.47 0.51 0.58 0.69 0.70 0.72 0.88 0.79 0.63 0.60 0.64 0.68 0.68 0.56 0.49 0.54 0.54 0.58 0.58 0.51 0.47 0.87 0.63 0.45 0.35 0.39 0.54
0.96 0.90 0.67 0.59 0.66 0.64 0.65 0.65 0.70 0.65 0.66 0.77 0.72 0.63 0.71 0.66 0.81 0.87 0.87 0.84 1.07 1.12 1.05 0.94 0.67 0.54 0.87 0.70 0.63 0.34 0.39 0.50
1.14 1.20 0.91 0.71 0.72 0.63 0.62 0.64 0.67 0.88 0.86 0.89 0.94 0.83 0.74 0.74 0.82 0.83 1.22 1.61 1.36 1.10 0.97 0.88 0.88 0.93 0.97 0.88 0.98 0.65 0.62 0.59

GFSFLT1_prec_precacc_132.txt.gz
Total_Precipitation_Accumulation
0.02 0.08 0.06 0.03 0.07 0.47 0.76 0.84 1.33 1.82 1.57 0.78 0.47 0.51 0.52 0.64 0.56 0.60 0.78 1.38 1.01 0.74 0.70 0.58 0.52 0.43 0.32 0.21 0.14 0.18 0.20 0.21
0.05 0.08 0.11 0.12 0.20 0.56 0.70 0.86 0.73 0.54 0.42 0.41 0.38 0.41 0.33 0.38 0.37 0.55 0.72 1.14 1.29 0.91 0.77 0.67 0.56 0.35 0.22 0.15 0.15 0.18 0.27 0.26
0.01 0.02 0.08 0.22 0.43 0.48 0.41 0.33 0.20 0.20 0.17 0.28 0.34 0.37 0.30 0.25 0.32 0.43 1.00 1.07 1.11 1.01 0.87 0.61 0.46 0.42 0.41 0.29 0.16 0.13 0.24 0.32
0.06 0.09 0.12 0.12 0.10 0.06 0.09 0.15 0.10 0.21 0.23 0.23 0.28 0.41 0.48 0.41 0.38 0.41 0.73 0.79 0.86 0.82 0.94 0.78 0.56 0.51 0.53 0.44 0.25 0.15 0.20 0.30
0.03 0.01 0.01 0.01 0.05 0.08 0.12 0.13 0.19 0.21 0.33 0.13 0.26 0.19 0.21 0.21 0.26 0.28 0.51 0.64 0.70 0.73 0.66 0.74 0.51 0.49 0.50 0.54 0.47 0.38 0.43 0.48
0.06 0.03 0.05 0.06 0.05 0.08 0.09 0.13 0.25 0.27 0.26 0.20 0.34 0.29 0.20 0.18 0.26 0.35 0.46 0.62 0.57 0.76 0.88 0.79 0.58 0.50 0.51 0.53 0.59 0.58 0.63 0.54
0.16 0.14 0.14 0.12 0.11 0.23 0.12 0.13 0.13 0.29 0.35 0.39 0.47 0.61 0.44 0.26 0.21 0.23 0.34 0.53 0.48 0.71 1.08 1.24 0.91 0.63 0.69 0.64 0.68 0.76 0.81 0.83
0.16 0.21 0.32 0.29 0.28 0.35 0.18 0.10 0.16 0.23 0.41 0.54 0.58 1.06 1.21 1.11 0.69 0.39 0.50 0.58 0.46 0.49 0.85 1.29 1.02 0.84 0.79 0.99 0.98 0.90 1.07 1.08
0.28 0.61 0.43 0.38 0.50 0.57 0.38 0.21 0.27 0.31 0.46 0.71 0.73 0.78 1.03 1.73 1.87 1.90 1.51 1.05 0.82 0.77 0.96 1.22 1.40 1.17 0.86 0.96 1.19 1.27 1.33 1.49
0.46 0.55 0.32 0.31 1.01 1.22 0.68 0.50 0.34 0.35 0.44 0.60 0.63 0.90 1.25 1.53 2.01 2.26 3.00 2.83 2.10 1.72 1.66 1.49 1.41 1.36 1.24 1.23 1.22 1.12 1.01 0.92
0.45 0.73 0.31 0.32 1.25 1.06 0.69 0.72 0.81 0.68 0.46 0.47 0.57 0.71 0.91 1.30 1.59 2.50 2.71 3.09 3.39 2.96 2.47 2.17 1.88 1.76 1.44 1.01 0.90 0.91 1.09 1.02
0.52 0.66 0.46 0.34 0.66 1.08 1.10 0.88 1.27 1.34 1.18 1.09 0.81 1.04 1.02 1.38 1.50 1.81 2.42 2.26 2.36 3.19 3.19 2.61 2.33 1.89 1.58 1.26 1.02 0.88 0.87 1.09
0.84 0.66 0.62 0.60 0.47 0.60 1.23 1.35 1.69 1.93 2.47 2.46 1.60 1.62 1.61 1.50 1.59 1.63 1.59 1.82 2.13 2.07 2.34 2.70 2.30 2.15 1.70 1.45 1.25 1.14 1.14 1.07
1.07 0.83 0.57 0.72 0.61 1.01 1.09 1.32 1.40 2.32 2.82 2.85 1.91 1.97 1.75 1.52 1.51 1.40 1.06 0.97 1.03 1.25 1.61 1.78 1.88 2.18 1.94 1.25 0.96 0.85 0.92 1.11
0.97 0.91 0.78 0.64 0.65 1.06 1.03 1.09 1.29 1.91 1.93 2.15 1.90 1.48 1.52 1.03 0.82 0.90 0.88 0.77 0.80 0.78 0.86 1.16 1.38 1.25 1.30 1.36 1.41 1.15 0.67 0.59
0.76 0.70 0.78 0.75 0.62 0.67 0.71 0.75 0.93 1.18 1.30 1.34 1.41 1.45 1.28 1.05 0.98 0.81 0.63 0.62 0.66 0.75 0.77 0.85 1.04 1.25 1.22 1.08 1.03 0.97 0.69 0.60
0.89 0.66 0.52 0.61 0.51 0.47 0.51 0.58 0.69 0.70 0.72 0.89 0.81 0.69 0.76 0.94 0.96 0.87 0.69 0.63 0.68 0.75 0.85 0.88 0.81 0.80 1.33 1.18 0.94 0.79 0.77 0.83
0.96 0.90 0.67 0.59 0.66 0.64 0.65 0.65 0.70 0.65 0.66 0.77 0.72 0.63 0.71 0.67 0.83 0.91 0.94 0.94 1.20 1.25 1.21 1.09 0.80 0.68 0.99 0.85 0.85 0.53 0.54 0.63
1.14 1.20 0.91 0.71 0.72 0.63 0.62 0.64 0.67 0.88 0.86 0.89 0.94 0.83 0.74 0.74 0.82 0.83 1.22 1.61 1.36 1.10 0.97 0.88 0.88 0.94 0.98 0.88 0.98 0.65 0.62 0.59

GFSFLT1_prec_precacc_138.txt.gz
Total_Precipitation_Accumulation
0.02 0.08 0.06 0.03 0.07 0.47 0.76 0.84 1.33 1.82 1.57 0.78 0.47 0.51 0.52 0.64 0.56 0.60 0.78 1.40 1.13 0.96 0.96 0.87 0.78 0.59 0.43 0.28 0.21 0.24 0.22 0.23
0.05 0.08 0.11 0.12 0.20 0.56 0.70 0.86 0.73 0.54 0.42 0.41 0.38 0.41 0.33 0.38 0.37 0.55 0.72 1.14 1.32 1.08 1.08 1.04 0.98 0.78 0.51 0.25 0.26 0.27 0.31 0.33
0.01 0.02 0.08 0.22 0.43 0.48 0.41 0.33 0.20 0.20 0.17 0.28 0.34 0.37 0.30 0.25 0.32 0.43 1.00 1.07 1.14 1.10 1.10 0.93 0.86 1.02 1.12 0.72 0.25 0.17 0.29 0.45
0.06 0.09 0.12 0.12 0.10 0.06 0.09 0.15 0.10 0.21 0.23 0.23 0.28 0.41 0.48 0.41 0.38 0.41 0.73 0.79 0.89 0.87 1.08 1.04 0.98 1.16 1.31 1.08 0.46 0.21 0.24 0.39
0.03 0.01 0.01 0.01 0.05 0.08 0.12 0.13 0.19 0.21 0.33 0.14 0.26 0.20 0.21 0.22 0.26 0.28 0.51 0.64 0.70 0.75 0.73 1.08 0.95 1.20 1.44 1.36 1.12 0.64 0.61 0.58
0.06 0.03 0.05 0.06 0.05 0.08 0.09 0.13 0.25 0.27 0.26 0.20 0.35 0.30 0.21 0.19 0.26 0.35 0.46 0.62 0.57 0.77 0.90 0.89 1.15 1.40 1.48 1.54 1.68 1.28 0.88 0.71
0.16 0.14 0.14 0.12 0.11 0.23 0.12 0.13 0.13 0.29 0.35 0.39 0.48 0.62 0.46 0.28 0.22 0.24 0.34 0.53 0.48 0.71 1.08 1.29 1.20 1.25 1.61 1.58 1.73 1.66 1.37 1.12
0.16 0.21 0.32 0.29 0.28 0.35 0.18 0.10 0.16 0.23 0.41 0.54 0.59 1.08 1.24 1.14 0.72 0.42 0.51 0.59 0.46 0.49 0.85 1.32 1.48 1.46 1.58 1.84 1.80 1.95 1.82 1.49
0.28 0.61 0.43 0.38 0.50 0.57 0.39 0.22 0.28 0.31 0.46 0.72 0.73 0.79 1.05 1.76 1.90 1.93 1.54 1.07 0.83 0.77 0.96 1.22 1.46 1.44 1.47 1.62 1.99 2.07 2.18 2.30
0.46 0.55 0.32 0.31 1.01 1.23 0.70 0.52 0.36 0.37 0.45 0.61 0.64 0.91 1.26 1.56 2.03 2.31 3.04 2.87 2.13 1.73 1.67 1.49 1.42 1.47 1.68 1.79 1.77 1.76 1.62 1.48
0.45 0.73 0.31 0.32 1.25 1.06 0.69 0.73 0.83 0.69 0.47 0.49 0.60 0.73 0.94 1.35 1.63 2.54 2.77 3.16 3.46 3.00 2.49 2.17 1.88 1.86 1.78 1.44 1.33 1.45 1.67 1.51
0.52 0.66 0.46 0.34 0.66 1.08 1.10 0.89 1.28 1.36 1.21 1.13 0.85 1.09 1.07 1.42 1.56 1.93 2.56 2.40 2.46 3.25 3.22 2.62 2.33 1.93 1.90 1.79 1.44 1.22 1.28 1.69
0.84 0.66 0.62 0.60 0.47 0.60 1.23 1.35 1.70 2.01 2.58 2.54 1.68 1.77 1.76 1.61 1.77 1.78 1.77 1.96 2.21 2.12 2.36 2.70 2.30 2.19 1.96 1.89 1.76 1.72 1.68 1.56
1.07 0.83 0.57 0.72 0.61 1.01 1.09 1.33 1.41 2.36 3.02 3.11 2.12 2.26 2.01 1.97 2.02 1.80 1.37 1.22 1.23 1.35 1.68 1.81 1.91 2.24 2.11 1.84 1.57 1.35 1.40 1.50
0.97 0.91 0.78 0.64 0.65 1.06 1.03 1.09 1.30 1.93 2.02 2.47 2.35 2.17 2.45 1.79 1.50 1.63 1.60 1.16 1.16 0.98 0.94 1.20 1.47 1.53 1.84 2.00 2.13 1.84 1.47 1.23
0.76 0.70 0.78 0.75 0.62 0.67 0.71 0.75 0.93 1.18 1.30 1.38 1.65 2.10 2.16 1.99 2.01 2.00 1.65 1.49 1.51 1.19 1.03 0.96 1.11 1.43 1.67 1.72 1.73 1.83 1.78 1.78
0.89 0.66 0.52 0.61 0.51 0.47 0.51 0.58 0.69 0.70 0.72 0.89 0.81 0.71 0.89 1.22 1.36 1.30 1.01 1.28 1.60 1.30 1.36 1.05 0.91 0.96 1.61 1.60 1.52 1.42 1.37 1.56
0.96 0.90 0.67 0.59 0.66 0.64 0.65 0.65 0.70 0.65 0.66 0.77 0.72 0.63 0.71 0.67 0.87 0.96 1.02 0.97 1.26 1.34 1.31 1.16 0.87 0.80 1.10 0.99 1.13 1.01 1.14 1.29
1.14 1.20 0.91 0.71 0.72 0.63 0.62 0.64 0.67 0.88 0.86 0.89 0.94 0.83 0.75 0.74 0.82 0.83 1.22 1.61 1.37 1.11 0.99 0.90 0.91 0.96 0.99 0.90 1.00 0.70 0.72 0.72

GFSFLT1_prec_precacc_144.txt.gz
Total_Precipitation_Accumulation
0.02 0.08 0.06 0.03 0.07 0.47 0.76 0.84 1.33 1.82 1.57 0.78 0.47 0.51 0.52 0.64 0.56 0.60 0.78 1.40 1.13 0.96 0.96 0.87 0.78 0.61 0.52 0.55 0.48 0.45 0.37 0.28
0.05 0.08 0.11 0.12 0.20 0.56 0.70 0.86 0.73 0.54 0.42 0.41 0.38 0.41 0.33 0.38 0.37 0.55 0.72 1.14 1.32 1.08 1.08 1.04 0.98 0.79 0.58 0.47 0.56 0.70 0.58 0.55
0.01 0.02 0.08 0.22 0.43 0.48 0.41 0.33 0.20 0.20 0.17 0.28 0.34 0.37 0.30 0.25 0.32 0.43 1.00 1.07 1.14 1.10 1.10 0.94 0.87 1.02 1.13 1.05 0.87 0.81 0.62 0.73
0.06 0.09 0.12 0.12 0.10 0.06 0.09 0.15 0.10 0.21 0.23 0.23 0.28 0.41 0.48 0.41 0.38 0.42 0.73 0.79 0.89 0.87 1.09 1.05 0.99 1.17 1.33 1.19 1.07 1.00 1.08 1.11
0.03 0.01 0.01 0.01 0.05 0.08 0.12 0.13 0.19 0.21 0.33 0.14 0.26 0.20 0.22 0.22 0.26 0.28 0.51 0.64 0.71 0.75 0.73 1.09 0.95 1.21 1.45 1.40 1.22 1.03 1.19 1.24
0.06 0.03 0.05 0.06 0.05 0.08 0.09 0.13 0.25 0.27 0.26 0.20 0.35 0.30 0.22 0.19 0.27 0.36 0.47 0.62 0.57 0.77 0.90 0.89 1.16 1.41 1.48 1.54 1.72 1.57 1.35 1.16
0.16 0.14 0.14 0.12 0.11 0.23 0.12 0.13 0.13 0.29 0.35 0.39 0.48 0.63 0.47 0.29 0.23 0.24 0.34 0.54 0.49 0.72 1.09 1.30 1.21 1.26 1.62 1.59 1.73 1.74 1.81 1.69
0.16 0.21 0.32 0.29 0.28 0.35 0.18 0.10 0.16 0.23 0.41 0.55 0.60 1.09 1.25 1.16 0.74 0.43 0.52 0.60 0.47 0.50 0.86 1.33 1.49 1.47 1.59 1.84 1.81 1.97 1.99 1.90
0.28 0.61 0.43 0.38 0.50 0.57 0.39 0.22 0.28 0.31 0.46 0.72 0.74 0.80 1.07 1.77 1.92 1.95 1.56 1.08 0.84 0.78 0.97 1.23 1.47 1.44 1.47 1.63 2.00 2.08 2.20 2.40
0.46 0.55 0.32 0.31 1.01 1.23 0.70 0.52 0.36 0.37 0.45 0.62 0.65 0.92 1.28 1.57 2.04 2.32 3.06 2.89 2.15 1.74 1.68 1.52 1.45 1.49 1.70 1.80 1.78 1.76 1.63 1.52
0.45 0.73 0.31 0.32 1.25 1.06 0.69 0.73 0.83 0.69 0.47 0.49 0.61 0.74 0.95 1.36 1.64 2.55 2.79 3.19 3.50 3.05 2.56 2.23 1.91 1.87 1.79 1.45 1.33 1.45 1.69 1.54
0.52 0.66 0.46 0.34 0.66 1.08 1.10 0.89 1.28 1.36 1.21 1.13 0.85 1.10 1.08 1.43 1.58 1.96 2.65 2.50 2.60 3.30 3.28 2.72 2.46 1.96 1.91 1.79 1.45 1.24 1.30 1.70
0.84 0.66 0.62 0.60 0.47 0.60 1.23 1.35 1.70 2.01 2.58 2.54 1.68 1.79 1.77 1.64 1.83 1.86 1.85 2.12 2.30 2.17 2.43 2.82 2.48 2.27 1.97 1.90 1.77 1.73 1.69 1.56
1.07 0.83 0.57 0.72 0.61 1.01 1.09 1.33 1.41 2.36 3.02 3.11 2.12 2.27 2.03 2.02 2.11 1.93 1.58 1.43 1.37 1.49 1.78 1.90 2.00 2.31 2.14 1.88 1.60 1.38 1.42 1.52
0.97 0.91 0.78 0.64 0.65 1.06 1.03 1.09 1.30 1.93 2.02 2.47 2.35 2.17 2.46 1.83 1.56 1.77 1.86 1.54 1.47 1.39 1.33 1.54 1.71 1.69 1.93 2.07 2.18 1.91 1.54 1.28
0.76 0.70 0.78 0.75 0.62 0.67 0.71 0.75 0.93 1.18 1.30 1.38 1.65 2.10 2.16 1.99 2.03 2.08 1.85 1.90 2.03 1.80 1.65 1.39 1.39 1.72 2.02 1.97 2.04 2.05 1.94 1.95
0.89 0.66 0.52 0.61 0.51 0.47 0.51 0.58 0.69 0.70 0.72 0.89 0.81 0.71 0.89 1.22 1.37 1.32 1.07 1.40 1.74 1.55 1.79 1.37 1.28 1.22 1.90 2.04 2.07 2.08 1.94 1.94
0.96 0.90 0.67 0.59 0.66 0.64 0.65 0.65 0.70 0.65 0.66 0.77 0.72 0.63 0.71 0.67 0.87 0.96 1.03 0.99 1.31 1.42 1.49 1.33 1.00 0.85 1.14 1.12 1.38 1.43 1.75 1.94
1.14 1.20 0.91 0.71 0.72 0.63 0.62 0.64 0.67 0.88 0.86 0.89 0.94 0.83 0.75 0.74 0.82 0.83 1.22 1.61 1.37 1.13 1.05 0.96 0.94 0.97 1.00 0.91 1.04 0.77 0.81 0.85

GFSFLT1_prec_precacc_147.txt.gz
Total_Precipitation_Accumulation
0.02 0.08 0.06 0.03 0.07 0.47 0.76 0.84 1.33 1.82 1.57 0.78 0.47 0.51 0.52 0.64 0.56 0.60 0.78 1.40 1.13 0.96 0.96 0.87 0.78 0.61 0.52 0.55 0.48 0.45 0.39 0.30
0.05 0.08 0.11 0.12 0.20 0.56 0.70 0.86 0.73 0.54 0.42 0.41 0.38 0.41 0.33 0.38 0.37 0.55 0.72 1.14 1.32 1.08 1.08 1.04 0.98 0.79 0.58 0.47 0.56 0.70 0.58 0.57
0.01 0.02 0.08 0.22 0.43 0.48 0.41 0.33 0.20 0.20 0.17 0.28 0.34 0.37 0.30 0.25 0.32 0.43 1.00 1.07 1.14 1.10 1.10 0.94 0.87 1.02 1.13 1.05 0.87 0.81 0.62 0.74
0.06 0.09 0.12 0.12 0.10 0.06 0.09 0.15 0.10 0.21 0.23 0.23 0.28 0.41 0.48 0.41 0.38 0.42 0.73 0.79 0.89 0.88 1.09 1.05 1.00 1.17 1.33 1.19 1.07 1.00 1.09 1.12
0.03 0.01 0.01 0.01 0.05 0.08 0.12 0.13 0.19 0.21 0.33 0.14 0.26 0.20 0.22 0.22 0.26 0.28 0.51 0.64 0.71 0.75 0.74 1.09 0.96 1.21 1.46 1.40 1.22 1.03 1.20 1.25
0.06 0.03 0.05 0.06 0.05 0.08 0.09 0.13 0.25 0.27 0.26 0.20 0.35 0.30 0.22 0.19 0.27 0.36 0.47 0.62 0.57 0.77 0.90 0.90 1.16 1.41 1.49 1.54 1.72 1.57 1.35 1.18
0.16 0.14 0.14 0.12 0.11 0.23 0.12 0.13 0.13 0.29 0.35 0.39 0.48 0.63 0.47 0.29 0.23 0.25 0.34 0.54 0.49 0.72 1.09 1.30 1.21 1.26 1.63 1.59 1.74 1.75 1.81 1.69
0.16 0.21 0.32 0.29 0.28 0.35 0.18 0.10 0.16 0.23 0.41 0.55 0.60 1.09 1.25 1.16 0.74 0.44 0.52 0.60 0.47 0.50 0.86 1.34 1.49 1.47 1.59 1.85 1.81 1.98 1.99 1.91
0.28 0.61 0.43 0.38 0.50 0.57 0.39 0.22 0.28 0.31 0.46 0.72 0.74 0.80 1.07 1.78 1.93 1.96 1.56 1.09 0.85 0.78 0.98 1.24 1.48 1.45 1.48 1.63 2.00 2.09 2.22 2.44
0.46 0.55 0.32 0.31 1.01 1.23 0.70 0.52 0.36 0.37 0.45 0.62 0.65 0.92 1.28 1.58 2.05 2.32 3.07 2.90 2.16 1.75 1.69 1.53 1.45 1.50 1.70 1.81 1.80 1.78 1.66 1.58
0.45 0.73 0.31 0.32 1.25 1.06 0.69 0.73 0.83 0.69 0.47 0.49 0.61 0.74 0.95 1.36 1.64 2.56 2.80 3.20 3.51 3.07 2.57 2.24 1.93 1.88 1.79 1.46 1.35 1.47 1.72 1.58
0.52 0.66 0.46 0.34 0.66 1.08 1.10 0.89 1.28 1.36 1.21 1.13 0.85 1.10 1.08 1.43 1.59 1.97 2.66 2.50 2.61 3.32 3.30 2.73 2.50 2.05 1.97 1.82 1.46 1.25 1.34 1.75
0.84 0.66 0.62 0.60 0.47 0.60 1.23 1.35 1.70 2.01 2.58 2.54 1.68 1.79 1.77 1.64 1.83 1.87 1.86 2.14 2.31 2.20 2.46 2.84 2.55 2.49 2.10 1.97 1.79 1.75 1.71 1.61
1.07 0.83 0.57 0.72 0.61 1.01 1.09 1.33 1.41 2.36 3.02 3.11 2.12 2.27 2.03 2.02 2.11 1.93 1.59 1.47 1.42 1.55 1.83 1.96 2.08 2.46 2.30 2.07 1.65 1.40 1.50 1.54
0.97 0.91 0.78 0.64 0.65 1.06 1.03 1.09 1.30 1.93 2.02 2.47 2.35 2.17 2.46 1.83 1.56 1.77 1.87 1.55 1.49 1.43 1.42 1.62 1.78 1.74 1.98 2.16 2.25 1.95 1.54 1.29
0.76 0.70 0.78 0.75 0.62 0.67 0.71 0.75 0.93 1.18 1.30 1.38 1.65 2.10 2.16 1.99 2.03 2.08 1.85 1.90 2.03 1.80 1.67 1.43 1.44 1.78 2.15 2.05 2.08 2.09 1.96 1.96
0.89 0.66 0.52 0.61 0.51 0.47 0.51 0.58 0.69 0.70 0.72 0.89 0.81 0.71 0.89 1.22 1.37 1.32 1.07 1.40 1.74 1.55 1.79 1.38 1.30 1.23 1.93 2.08 2.09 2.13 2.01 2.00
0.96 0.90 0.67 0.59 0.66 0.64 0.65 0.65 0.70 0.65 0.66 0.77 0.72 0.63 0.71 0.67 0.87 0.96 1.03 0.99 1.31 1.42 1.49 1.33 1.01 0.86 1.16 1.13 1.38 1.44 1.76 1.97
1.14 1.20 0.91 0.71 0.72 0.63 0.62 0.64 0.67 0.88 0.86 0.89 0.94 0.83 0.75 0.74 0.82 0.83 1.22 1.61 1.37 1.13 1.05 0.96 0.94 0.97 1.00 0.91 1.04 0.78 0.82 0.86